This demonstration page uses our WeatherBlox Daily Observations layout. Learn more.

Left ArrowRight Arrow

36.17497, -115.13722

Hourly Observations for January 25, 2021

Temp ( °F °C ) Dew Point ( °F °C ) Humidity (%) Winds ( mph kmh ) Pressure ( in mb ) Visibility ( mi km ) Precip ( " mm )
12:53 am 00:53 Cloudy 50 10 27 -2.8 41 41 S 12 19 29.66 1005 10 16 N/A
1:53 am 01:53 Cloudy 47 8.3 30 -1.1 52 52 S 18 30 29.66 1004 10 16 N/A
2:53 am 02:53 Cloudy 46 7.8 32 undefined 58 58 S 16 26 29.66 1004 10 16 0.00 0.00
3:53 am 03:53 Cloudy 45 7.2 33 0.6 63 63 S 10 17 29.63 1004 10 16 N/A
4:53 am 04:53 Cloudy 45 7.2 32 undefined 61 61 S 18 30 29.61 1003 10 16 N/A
5:53 am 05:53 Cloudy 44 6.7 32 undefined 63 63 S 15 24 29.61 1003 10 16 N/A
6:53 am 06:53 Cloudy 44 6.7 32 undefined 63 63 SSE 8 13 29.62 1003 10 16 N/A
7:53 am 07:53 Cloudy 44 6.7 33 0.6 65 65 E 5 7 29.62 1003 10 16 N/A
8:53 am 08:53 Cloudy 45 7.2 33 0.6 63 63 ESE 5 7 29.60 1003 10 16 0.00 0.00
9:53 am 09:53 Cloudy with Light Rain 46 7.8 34 1.1 63 63 SSE 15 24 29.59 1002 10 16 0.00 0.00
10:30 am 10:30 Mostly Cloudy with Heavy Rain 42 5.6 34 1.1 73 73 S 14 22 29.58 1002 3 4 0.03 0.76
10:39 am 10:39 Cloudy with Rain 42 5.6 35 1.7 76 76 SSE 10 17 29.57 1001 2 3 0.07 1.78
10:48 am 10:48 Cloudy with Rain 43 6 36 2 76 76 E 8 13 29.57 1001 2 3 0.10 2.54
10:53 am 10:53 Cloudy with Light Rain 42 5.6 36 2.2 79 79 E 12 19 29.58 1002 3 4 0.10 2.54
11:00 am 11:00 Cloudy with Light Rain 42 5.6 37 2.8 82 82 E 9 15 29.56 1001 7 11 0.00 0.00
11:35 am 11:35 Cloudy with Rain 41 5 35 1.7 79 79 SE 14 22 29.55 1001 4 6 0.08 2.03
11:53 am 11:53 Cloudy with Light Rain 40 4.4 34 1.1 79 79 S 10 17 29.53 1000 10 16 0.09 2.29
12:35 pm 12:35 Mostly Cloudy 41 5 35 1.7 79 79 S 3 6 29.51 999 10 16 0.00 0.00
12:45 pm 12:45 Partly Cloudy 42 5.6 36 2.2 79 79 S 5 7 29.49 999 10 16 0.00 0.00
12:53 pm 12:53 Mostly Cloudy 43 6.1 36 2.2 76 76 E 8 13 29.50 999 10 16 0.00 0.00
1:37 pm 13:37 Partly Cloudy 43 6.1 36 2.2 76 76 VRB 5 7 29.48 998 10 16 N/A
1:46 pm 13:46 Mostly Cloudy 43 6.1 35 1.7 74 74 NE 3 6 29.48 998 10 16 N/A
1:53 pm 13:53 Mostly Cloudy 44 6.7 35 1.7 71 71 E 7 11 29.49 999 10 16 N/A
2:01 pm 14:01 Mostly Cloudy 44 6.7 35 1.7 71 71 ENE 7 11 29.47 998 10 16 N/A
2:53 pm 14:53 Cloudy 45 7.2 30 -1.1 56 56 S 17 28 29.48 998 10 16 N/A
3:53 pm 15:53 Cloudy 43 6.1 31 -0.6 63 63 SSW 10 17 29.49 999 10 16 N/A
4:14 pm 16:14 Cloudy 43 6.1 29 -1.7 58 58 S 13 20 29.48 998 10 16 N/A
4:53 pm 16:53 Cloudy 43 6.1 28 -2.2 56 56 SSW 7 11 29.51 999 10 16 N/A
5:53 pm 17:53 Cloudy 42 5.6 28 -2.2 58 58 S 9 15 29.53 1000 10 16 N/A
6:53 pm 18:53 Cloudy 41 5 29 -1.7 62 62 S 10 17 29.53 1000 10 16 N/A
8:53 pm 20:53 Cloudy 41 5 28 -2.2 60 60 SSE 10 17 29.54 1001 10 16 N/A
9:53 pm 21:53 Cloudy 41 5 28 -2.2 60 60 S 7 11 29.56 1001 10 16 N/A
10:53 pm 22:53 Cloudy 40 4.4 27 -2.8 60 60 SSE 10 17 29.59 1002 10 16 N/A
11:46 pm 23:46 Cloudy with Light Rain 39 3.9 29 -1.7 67 67 S 13 20 29.60 1002 10 16 0.00 0.00
11:53 pm 23:53 Cloudy with Light Rain 39 3.9 29 -1.7 67 67 S 10 17 29.61 1003 10 16 0.00 0.00

Powered by AerisWeather